,,PA_Meas_PMT16A,,PR_Meas_QMR101_102,,RH_Meas_QMH101,,SR_Meas_QMS101,,TA_Meas_QMH101,,GenWind,,GenWind,
time,status,PA,status,PR,status,RH,status,SR,status,TA,status,DirAvg,status,SpdAvg,
2012-09-21, 00:00:04,VALID,918.758,VALID,0,VALID,97.2138,VALID,0,VALID,18.8282,VALID,130,VALID,0,
2012-09-21, 00:01:04,VALID,918.734,VALID,0,VALID,97.229,VALID,0,VALID,18.8477,VALID,130,VALID,0,
2012-09-21, 00:02:04,VALID,918.73,VALID,0,VALID,97.2367,VALID,0,VALID,18.8477,VALID,130,VALID,0,
2012-09-21, 00:03:04,VALID,918.707,VALID,0,VALID,97.2672,VALID,0,VALID,18.8282,VALID,130,VALID,0,
2012-09-21, 00:04:04,VALID,918.666,VALID,0,VALID,97.2748,VALID,0,VALID,18.7683,VALID,130,VALID,0,
2012-09-21, 00:05:04,VALID,918.637,VALID,0,VALID,97.2519,VALID,0,VALID,18.7293,VALID,130,VALID,0,
2012-09-21, 00:06:04,VALID,918.595,VALID,0,VALID,97.2443,VALID,0,VALID,18.7098,VALID,130,VALID,0,
2012-09-21, 00:07:04,VALID,918.58,VALID,0,VALID,97.2519,VALID,0,VALID,18.6903,VALID,130,VALID,0,
2012-09-21, 00:08:04,VALID,918.539,VALID,0,VALID,97.2595,VALID,0.107441,VALID,18.7098,VALID,130,VALID,0,
2012-09-21, 00:09:04,VALID,918.552,VALID,0,VALID,97.2748,VALID,0,VALID,18.7098,VALID,130,VALID,0,
2012-09-21, 00:10:04,VALID,918.562,VALID,0,VALID,97.2748,VALID,0,VALID,18.6903,VALID,130,VALID,0,
2012-09-21, 00:11:04,VALID,918.579,VALID,0,VALID,97.2672,VALID,0.107441,VALID,18.7098,VALID,131,VALID,0,
2012-09-21, 00:12:04,VALID,918.614,VALID,0,VALID,97.2824,VALID,0,VALID,18.6903,VALID,130,VALID,0,
2012-09-21, 00:13:04,VALID,918.591,VALID,0,VALID,97.2748,VALID,0.107441,VALID,18.6708,VALID,130,VALID,0,
2012-09-21, 00:14:04,VALID,918.574,VALID,0,VALID,97.29,VALID,0,VALID,18.6708,VALID,130,VALID,0,
2012-09-21, 00:15:04,VALID,918.611,VALID,0,VALID,97.29,VALID,0,VALID,18.6513,VALID,130,VALID,0,
2012-09-21, 00:16:04,VALID,918.588,VALID,0,VALID,97.2443,VALID,0,VALID,18.5734,VALID,130,VALID,0,
2012-09-21, 00:17:04,VALID,918.575,VALID,0,VALID,97.2824,VALID,0,VALID,18.6708,VALID,130,VALID,0,
2012-09-21, 00:18:04,VALID,918.533,VALID,0,VALID,97.3281,VALID,0.107441,VALID,18.7098,VALID,130,VALID,0,
2012-09-21, 00:19:04,VALID,918.533,VALID,0,VALID,97.29,VALID,0,VALID,18.6903,VALID,130,VALID,0,
2012-09-21, 00:20:04,VALID,918.493,VALID,0,VALID,97.2748,VALID,0.107441,VALID,18.7113,VALID,131,VALID,0,
2012-09-21, 00:21:04,VALID,918.491,VALID,0,VALID,97.2595,VALID,0,VALID,18.7098,VALID,130,VALID,0,
2012-09-21, 00:22:04,VALID,918.448,VALID,0,VALID,97.2595,VALID,0,VALID,18.7098,VALID,130,VALID,0,
2012-09-21, 00:23:04,VALID,918.475,VALID,0,VALID,97.2443,VALID,0,VALID,18.7113,VALID,130,VALID,0,
2012-09-21, 00:24:04,VALID,918.43,VALID,0,VALID,97.2214,VALID,0,VALID,18.7113,VALID,130,VALID,0,
2012-09-21, 00:25:04,VALID,918.442,VALID,0,VALID,97.2062,VALID,0,VALID,18.6918,VALID,130,VALID,0,
2012-09-21, 00:26:04,VALID,918.409,VALID,0,VALID,97.1833,VALID,0,VALID,18.6723,VALID,130,VALID,0,
2012-09-21, 00:27:04,VALID,918.383,VALID,0,VALID,97.1299,VALID,0,VALID,18.6124,VALID,130,VALID,0,
2012-09-21, 00:28:04,VALID,918.39,VALID,0,VALID,97.1071,VALID,0.107441,VALID,18.5734,VALID,130,VALID,0,
2012-09-21, 00:29:04,VALID,918.377,VALID,0,VALID,97.1147,VALID,0,VALID,18.5734,VALID,130,VALID,0,
2012-09-21, 00:30:04,VALID,918.355,VALID,0,VALID,97.1071,VALID,0,VALID,18.6138,VALID,130,VALID,0,
2012-09-21, 00:31:04,VALID,918.352,VALID,0,VALID,97.1681,VALID,0.107441,VALID,18.6319,VALID,130,VALID,0,
2012-09-21, 00:32:04,VALID,918.349,VALID,0,VALID,97.1757,VALID,0,VALID,18.6513,VALID,130,VALID,0,
2012-09-21, 00:33:04,VALID,918.329,VALID,0,VALID,97.1833,VALID,0.107441,VALID,18.6708,VALID,130,VALID,0,
2012-09-21, 00:34:04,VALID,918.349,VALID,0,VALID,97.1681,VALID,0.107441,VALID,18.7308,VALID,130,VALID,0,
2012-09-21, 00:35:04,VALID,918.358,VALID,0,VALID,97.1909,VALID,0,VALID,18.7293,VALID,130,VALID,0,
2012-09-21, 00:36:04,VALID,918.393,VALID,0,VALID,97.1452,VALID,0,VALID,18.7697,VALID,130,VALID,0,
2012-09-21, 00:37:04,VALID,918.368,VALID,0,VALID,97.1452,VALID,0,VALID,18.7488,VALID,130,VALID,0,
2012-09-21, 00:38:04,VALID,918.418,VALID,0,VALID,97.1376,VALID,0.107441,VALID,18.7683,VALID,130,VALID,0,
2012-09-21, 00:39:04,VALID,918.4,VALID,0,VALID,97.1071,VALID,0,VALID,18.7892,VALID,130,VALID,0,
2012-09-21, 00:40:04,VALID,918.38,VALID,0,VALID,97.0766,VALID,0,VALID,18.7892,VALID,130,VALID,0,
2012-09-21, 00:41:04,VALID,918.366,VALID,0,VALID,97.0461,VALID,0,VALID,18.8087,VALID,130,VALID,0,
2012-09-21, 00:42:04,VALID,918.375,VALID,0,VALID,97.0232,VALID,0.107441,VALID,18.7488,VALID,130,VALID,0,
2012-09-21, 00:43:04,VALID,918.339,VALID,0,VALID,96.9927,VALID,0,VALID,18.7488,VALID,130,VALID,0,
2012-09-21, 00:44:04,VALID,918.335,VALID,0,VALID,96.947,VALID,0,VALID,18.7293,VALID,130,VALID,0,
2012-09-21, 00:45:04,VALID,918.319,VALID,0,VALID,96.9012,VALID,0,VALID,18.7113,VALID,131,VALID,0,
2012-09-21, 00:46:04,VALID,918.289,VALID,0,VALID,96.8326,VALID,0.107441,VALID,18.6513,VALID,131,VALID,0,
2012-09-21, 00:47:04,VALID,918.287,VALID,0,VALID,96.8707,VALID,0.107441,VALID,18.6124,VALID,131,VALID,0,
2012-09-21, 00:48:04,VALID,918.255,VALID,0,VALID,96.9012,VALID,0,VALID,18.5929,VALID,131,VALID,0,
2012-09-21, 00:49:04,VALID,918.243,VALID,0,VALID,96.9089,VALID,0,VALID,18.6152,VALID,131,VALID,0,
2012-09-21, 00:50:04,VALID,918.209,VALID,0,VALID,96.9241,VALID,0,VALID,18.5553,VALID,131,VALID,0,
2012-09-21, 00:51:04,VALID,918.219,VALID,0,VALID,96.9089,VALID,0,VALID,18.5358,VALID,130,VALID,0,
2012-09-21, 00:52:04,VALID,918.218,VALID,0,VALID,96.9165,VALID,0,VALID,18.5163,VALID,130,VALID,0,
2012-09-21, 00:53:04,VALID,918.204,VALID,0,VALID,96.9165,VALID,0,VALID,18.4968,VALID,130,VALID,0,
2012-09-21, 00:54:04,VALID,918.169,VALID,0,VALID,96.947,VALID,0,VALID,18.4773,VALID,131,VALID,0,
2012-09-21, 00:55:04,VALID,918.169,VALID,0,VALID,96.9317,VALID,0,VALID,18.4592,VALID,131,VALID,0,
2012-09-21, 00:56:04,VALID,918.139,VALID,0,VALID,96.9317,VALID,0,VALID,18.4383,VALID,130,VALID,0,
2012-09-21, 00:57:04,VALID,918.17,VALID,0,VALID,96.9622,VALID,0,VALID,18.4202,VALID,131,VALID,0,
2012-09-21, 00:58:04,VALID,918.205,VALID,0,VALID,96.9622,VALID,0,VALID,18.4202,VALID,130,VALID,0,
2012-09-21, 00:59:04,VALID,918.171,VALID,0,VALID,96.9546,VALID,0,VALID,18.4007,VALID,131,VALID,0,
2012-09-21, 01:00:04,VALID,918.18,VALID,0,VALID,96.9851,VALID,0,VALID,18.4202,VALID,131,VALID,0,
2012-09-21, 01:01:04,VALID,918.17,VALID,0,VALID,97.0308,VALID,0,VALID,18.4383,VALID,131,VALID,0,
2012-09-21, 01:02:04,VALID,918.189,VALID,0,VALID,97.0766,VALID,0,VALID,18.4578,VALID,131,VALID,0,
2012-09-21, 01:03:04,VALID,918.18,VALID,0,VALID,97.0918,VALID,0,VALID,18.5163,VALID,131,VALID,0,
2012-09-21, 01:04:04,VALID,918.169,VALID,0,VALID,97.1299,VALID,0,VALID,18.5358,VALID,131,VALID,0,
2012-09-21, 01:05:04,VALID,918.184,VALID,0,VALID,97.1223,VALID,0,VALID,18.5943,VALID,131,VALID,0,
2012-09-21, 01:06:04,VALID,918.179,VALID,0,VALID,97.1299,VALID,0,VALID,18.6152,VALID,131,VALID,0,
2012-09-21, 01:07:04,VALID,918.139,VALID,0,VALID,97.1452,VALID,0,VALID,18.6152,VALID,131,VALID,0,
2012-09-21, 01:08:04,VALID,918.144,VALID,0,VALID,97.1147,VALID,0,VALID,18.5553,VALID,131,VALID,0,
2012-09-21, 01:09:04,VALID,918.112,VALID,0,VALID,97.0537,VALID,0,VALID,18.5372,VALID,131,VALID,0,
2012-09-21, 01:10:04,VALID,918.088,VALID,0,VALID,97.0232,VALID,0,VALID,18.4968,VALID,131,VALID,0,
2012-09-21, 01:11:04,VALID,918.054,VALID,0,VALID,97.0232,VALID,0,VALID,18.5567,VALID,131,VALID,0,
2012-09-21, 01:12:04,VALID,918.058,VALID,0,VALID,97.0385,VALID,0,VALID,18.4968,VALID,131,VALID,0,
2012-09-21, 01:13:04,VALID,918.03,VALID,0,VALID,97.0232,VALID,0,VALID,18.4773,VALID,131,VALID,0,
2012-09-21, 01:14:04,VALID,918.006,VALID,0,VALID,97.0232,VALID,0,VALID,18.4787,VALID,131,VALID,0,
2012-09-21, 01:15:04,VALID,917.983,VALID,0,VALID,96.9775,VALID,0,VALID,18.4174,VALID,131,VALID,0,
2012-09-21, 01:16:04,VALID,918.003,VALID,0,VALID,96.9546,VALID,0,VALID,18.3979,VALID,131,VALID,0,
2012-09-21, 01:17:04,VALID,918.027,VALID,0,VALID,96.9622,VALID,0,VALID,18.4383,VALID,131,VALID,0,
2012-09-21, 01:18:04,VALID,918.007,VALID,0,VALID,96.9546,VALID,0,VALID,18.4188,VALID,131,VALID,0,
2012-09-21, 01:19:04,VALID,918.009,VALID,0,VALID,96.9775,VALID,0,VALID,18.4383,VALID,131,VALID,0,
2012-09-21, 01:20:04,VALID,918.027,VALID,0,VALID,97.0156,VALID,0,VALID,18.4578,VALID,131,VALID,0,
2012-09-21, 01:21:04,VALID,917.995,VALID,0,VALID,97.069,VALID,0,VALID,18.4954,VALID,131,VALID,0,
2012-09-21, 01:22:04,VALID,918.014,VALID,0,VALID,97.069,VALID,0,VALID,18.4968,VALID,131,VALID,0,
2012-09-21, 01:23:04,VALID,917.992,VALID,0,VALID,97.069,VALID,0,VALID,18.4773,VALID,131,VALID,0,
2012-09-21, 01:24:04,VALID,917.979,VALID,0,VALID,97.0537,VALID,0,VALID,18.4369,VALID,131,VALID,0,
2012-09-21, 01:25:04,VALID,917.97,VALID,0,VALID,96.3142,VALID,0,VALID,18.164,VALID,131,VALID,0,
2012-09-21, 01:26:04,VALID,917.962,VALID,0,VALID,96.6802,VALID,0,VALID,18.1069,VALID,131,VALID,0,
2012-09-21, 01:27:04,VALID,917.926,VALID,0,VALID,97.0156,VALID,0,VALID,18.203,VALID,131,VALID,0,
2012-09-21, 01:28:04,VALID,917.874,VALID,0,VALID,97.0385,VALID,0,VALID,18.2433,VALID,131,VALID,0,
2012-09-21, 01:29:04,VALID,917.846,VALID,0,VALID,97.0232,VALID,0,VALID,18.2044,VALID,131,VALID,0,
2012-09-21, 01:30:04,VALID,917.832,VALID,0,VALID,97.0232,VALID,0,VALID,18.2238,VALID,131,VALID,0,
2012-09-21, 01:31:04,VALID,917.838,VALID,0,VALID,97.0461,VALID,0,VALID,18.2044,VALID,131,VALID,0,
2012-09-21, 01:32:04,VALID,917.798,VALID,0,VALID,97.0613,VALID,0,VALID,18.1849,VALID,131,VALID,0,
2012-09-21, 01:33:04,VALID,917.795,VALID,0,VALID,97.0842,VALID,0,VALID,18.2447,VALID,131,VALID,0,
2012-09-21, 01:34:04,VALID,917.759,VALID,0,VALID,97.0994,VALID,0,VALID,18.2238,VALID,131,VALID,0,
2012-09-21, 01:35:04,VALID,917.731,VALID,0,VALID,97.1299,VALID,0,VALID,18.2238,VALID,131,VALID,0,
2012-09-21, 01:36:04,VALID,917.726,VALID,0,VALID,97.1299,VALID,0.107441,VALID,18.2225,VALID,131,VALID,0,
2012-09-21, 01:37:04,VALID,917.71,VALID,0,VALID,97.1452,VALID,0,VALID,18.2225,VALID,131,VALID,0,
2012-09-21, 01:38:04,VALID,917.714,VALID,0,VALID,97.1376,VALID,0,VALID,18.2238,VALID,131,VALID,0,
2012-09-21, 01:39:04,VALID,917.714,VALID,0,VALID,97.1528,VALID,0,VALID,18.2238,VALID,131,VALID,0,
2012-09-21, 01:40:04,VALID,917.727,VALID,0,VALID,97.1299,VALID,0,VALID,18.2238,VALID,131,VALID,0,
2012-09-21, 01:41:04,VALID,917.719,VALID,0,VALID,97.1757,VALID,0,VALID,18.3603,VALID,131,VALID,0,
2012-09-21, 01:42:04,VALID,917.731,VALID,0,VALID,97.1757,VALID,0,VALID,18.3018,VALID,131,VALID,0,
2012-09-21, 01:43:04,VALID,917.712,VALID,0,VALID,97.1604,VALID,0,VALID,18.3213,VALID,131,VALID,0,
2012-09-21, 01:44:04,VALID,917.709,VALID,0,VALID,97.2062,VALID,0,VALID,18.3603,VALID,131,VALID,0,
2012-09-21, 01:45:04,VALID,917.719,VALID,0,VALID,97.1071,VALID,0,VALID,18.1654,VALID,131,VALID,0,
2012-09-21, 01:46:04,VALID,917.771,VALID,0,VALID,96.7793,VALID,0,VALID,17.9899,VALID,131,VALID,0,
2012-09-21, 01:47:04,VALID,917.764,VALID,0,VALID,97.0308,VALID,0,VALID,17.9301,VALID,131,VALID,0,
2012-09-21, 01:48:04,VALID,917.775,VALID,0,VALID,97.0994,VALID,0,VALID,18.0289,VALID,131,VALID,0,
2012-09-21, 01:49:04,VALID,917.805,VALID,0,VALID,97.1528,VALID,0,VALID,18.0289,VALID,131,VALID,0,
2012-09-21, 01:50:04,VALID,917.796,VALID,0,VALID,97.1757,VALID,0,VALID,18.1069,VALID,131,VALID,0,
2012-09-21, 01:51:04,VALID,917.822,VALID,0,VALID,97.2443,VALID,0,VALID,18.2044,VALID,131,VALID,0,
2012-09-21, 01:52:04,VALID,917.82,VALID,0,VALID,97.3053,VALID,0,VALID,18.2433,VALID,132,VALID,0,
2012-09-21, 01:53:04,VALID,917.821,VALID,0,VALID,97.29,VALID,0,VALID,18.1264,VALID,144,VALID,0,
2012-09-21, 01:54:04,VALID,917.805,VALID,0,VALID,97.2595,VALID,0,VALID,18.0874,VALID,150,VALID,0,
2012-09-21, 01:55:04,VALID,917.844,VALID,0,VALID,97.229,VALID,0,VALID,18.0679,VALID,150,VALID,0,
2012-09-21, 01:56:04,VALID,917.842,VALID,0,VALID,97.2443,VALID,0,VALID,18.0484,VALID,150,VALID,0,
2012-09-21, 01:57:04,VALID,917.873,VALID,0,VALID,97.2672,VALID,0,VALID,18.0484,VALID,150,VALID,0,
2012-09-21, 01:58:04,VALID,917.859,VALID,0,VALID,97.2824,VALID,0,VALID,18.0289,VALID,150,VALID,0,
2012-09-21, 01:59:04,VALID,917.87,VALID,0,VALID,97.2519,VALID,0,VALID,18.0094,VALID,150,VALID,0,
2012-09-21, 02:00:04,VALID,917.876,VALID,0,VALID,97.29,VALID,0,VALID,18.0289,VALID,150,VALID,0,
2012-09-21, 02:01:04,VALID,917.845,VALID,0,VALID,97.2824,VALID,0,VALID,18.0303,VALID,150,VALID,0,
2012-09-21, 02:02:04,VALID,917.799,VALID,0,VALID,97.2977,VALID,0,VALID,18.0108,VALID,150,VALID,0,
2012-09-21, 02:03:04,VALID,917.758,VALID,0,VALID,97.3053,VALID,0,VALID,18.0094,VALID,150,VALID,0,
2012-09-21, 02:04:04,VALID,917.707,VALID,0,VALID,97.3205,VALID,0,VALID,17.9899,VALID,150,VALID,0,
2012-09-21, 02:05:04,VALID,917.729,VALID,0,VALID,97.3053,VALID,0,VALID,18.0094,VALID,150,VALID,0,
2012-09-21, 02:06:04,VALID,917.673,VALID,0,VALID,97.3129,VALID,0,VALID,17.9899,VALID,150,VALID,0,
2012-09-21, 02:07:04,VALID,917.732,VALID,0,VALID,97.3434,VALID,0,VALID,17.9704,VALID,150,VALID,0,
2012-09-21, 02:08:04,VALID,917.754,VALID,0,VALID,97.3129,VALID,0,VALID,17.9523,VALID,150,VALID,0,
2012-09-21, 02:09:04,VALID,917.784,VALID,0,VALID,97.3281,VALID,0,VALID,17.9314,VALID,150,VALID,0,
2012-09-21, 02:10:04,VALID,917.819,VALID,0,VALID,97.3434,VALID,0,VALID,17.9314,VALID,150,VALID,0,
2012-09-21, 02:11:04,VALID,917.808,VALID,0,VALID,97.3586,VALID,0,VALID,17.9913,VALID,150,VALID,0,
2012-09-21, 02:12:04,VALID,917.813,VALID,0,VALID,97.3815,VALID,0,VALID,18.0693,VALID,150,VALID,0,
2012-09-21, 02:13:04,VALID,917.813,VALID,0,VALID,97.4044,VALID,0,VALID,18.0484,VALID,150,VALID,0,
2012-09-21, 02:14:04,VALID,917.792,VALID,0,VALID,97.4273,VALID,0,VALID,18.1069,VALID,138,VALID,0,
2012-09-21, 02:15:04,VALID,917.751,VALID,0,VALID,97.4273,VALID,0,VALID,18.1264,VALID,138,VALID,0,
2012-09-21, 02:16:04,VALID,917.757,VALID,0,VALID,97.4425,VALID,0,VALID,18.1862,VALID,138,VALID,0,
2012-09-21, 02:17:04,VALID,917.762,VALID,0,VALID,97.4425,VALID,0,VALID,18.1849,VALID,138,VALID,0,
2012-09-21, 02:18:04,VALID,917.72,VALID,0,VALID,97.4349,VALID,0,VALID,18.1264,VALID,138,VALID,0,
2012-09-21, 02:19:04,VALID,917.723,VALID,0,VALID,97.4425,VALID,0,VALID,18.0874,VALID,144,VALID,0,
2012-09-21, 02:20:04,VALID,917.753,VALID,0,VALID,97.4349,VALID,0,VALID,18.0874,VALID,144,VALID,0,
2012-09-21, 02:21:04,VALID,917.744,VALID,0,VALID,97.4196,VALID,0,VALID,18.0874,VALID,144,VALID,0,
2012-09-21, 02:22:04,VALID,917.754,VALID,0,VALID,97.4501,VALID,0,VALID,18.1264,VALID,144,VALID,0,
2012-09-21, 02:23:04,VALID,917.775,VALID,0,VALID,97.4273,VALID,0,VALID,18.1667,VALID,144,VALID,0,
2012-09-21, 02:24:04,VALID,917.783,VALID,0,VALID,97.4425,VALID,0,VALID,18.1667,VALID,144,VALID,0,
2012-09-21, 02:25:04,VALID,917.774,VALID,0,VALID,97.4654,VALID,0,VALID,18.1069,VALID,144,VALID,0,
2012-09-21, 02:26:04,VALID,917.773,VALID,0,VALID,97.4654,VALID,0,VALID,18.0874,VALID,144,VALID,0,
2012-09-21, 02:27:04,VALID,917.788,VALID,0,VALID,97.4501,VALID,0,VALID,18.0874,VALID,144,VALID,0,
2012-09-21, 02:28:04,VALID,917.78,VALID,0,VALID,97.473,VALID,0,VALID,18.1472,VALID,144,VALID,0,
2012-09-21, 02:29:04,VALID,917.816,VALID,0,VALID,97.4654,VALID,0,VALID,18.1459,VALID,136,VALID,0,
2012-09-21, 02:30:04,VALID,917.813,VALID,0,VALID,97.4806,VALID,0,VALID,18.1459,VALID,131,VALID,0,
2012-09-21, 02:31:04,VALID,917.826,VALID,0,VALID,97.4882,VALID,0,VALID,18.1667,VALID,131,VALID,0,
2012-09-21, 02:32:04,VALID,917.839,VALID,0,VALID,97.5035,VALID,0,VALID,18.1654,VALID,131,VALID,0,
2012-09-21, 02:33:04,VALID,917.821,VALID,0,VALID,97.4959,VALID,0,VALID,18.1654,VALID,140,VALID,0,
2012-09-21, 02:34:04,VALID,917.829,VALID,0,VALID,97.4959,VALID,0,VALID,18.1069,VALID,140,VALID,0,
2012-09-21, 02:35:04,VALID,917.843,VALID,0,VALID,97.4806,VALID,0,VALID,18.1264,VALID,124,VALID,0,
2012-09-21, 02:36:04,VALID,917.833,VALID,0,VALID,97.4959,VALID,0,VALID,18.1278,VALID,126,VALID,0,
2012-09-21, 02:37:04,VALID,917.843,VALID,0,VALID,97.4882,VALID,0,VALID,18.1069,VALID,127,VALID,0,
2012-09-21, 02:38:04,VALID,917.847,VALID,0,VALID,97.4959,VALID,0,VALID,18.1083,VALID,127,VALID,0,
2012-09-21, 02:39:04,VALID,917.839,VALID,0,VALID,97.4959,VALID,0,VALID,18.0888,VALID,127,VALID,0,
2012-09-21, 02:40:04,VALID,917.866,VALID,0,VALID,97.5035,VALID,0,VALID,18.0679,VALID,128,VALID,0,
2012-09-21, 02:41:04,VALID,917.886,VALID,0,VALID,97.5035,VALID,0,VALID,18.0693,VALID,150,VALID,0,
2012-09-21, 02:42:04,VALID,917.911,VALID,0,VALID,97.5111,VALID,0,VALID,18.0275,VALID,150,VALID,0,
2012-09-21, 02:43:04,VALID,917.908,VALID,0.2,VALID,97.5111,VALID,0,VALID,18.0679,VALID,161,VALID,0,
2012-09-21, 02:44:04,VALID,917.938,VALID,0,VALID,97.534,VALID,0,VALID,18.0874,VALID,160,VALID,0,
2012-09-21, 02:45:04,VALID,917.923,VALID,0,VALID,97.5492,VALID,0,VALID,18.0874,VALID,160,VALID,0,
2012-09-21, 02:46:04,VALID,917.906,VALID,0,VALID,97.534,VALID,0,VALID,18.0874,VALID,153,VALID,0,
2012-09-21, 02:47:04,VALID,917.925,VALID,0,VALID,97.534,VALID,0,VALID,18.1069,VALID,151,VALID,0,
2012-09-21, 02:48:04,VALID,917.908,VALID,0,VALID,97.5416,VALID,0,VALID,18.1667,VALID,151,VALID,0,
2012-09-21, 02:49:04,VALID,917.922,VALID,0,VALID,97.5416,VALID,0,VALID,18.1862,VALID,151,VALID,0,
2012-09-21, 02:50:04,VALID,917.927,VALID,0,VALID,97.5492,VALID,0,VALID,18.1849,VALID,151,VALID,0,
2012-09-21, 02:51:04,VALID,917.958,VALID,0,VALID,97.534,VALID,0,VALID,18.2252,VALID,151,VALID,0,
2012-09-21, 02:52:04,VALID,917.968,VALID,0,VALID,97.5492,VALID,0,VALID,18.2057,VALID,126,VALID,0,
2012-09-21, 02:53:04,VALID,918.014,VALID,0,VALID,97.5645,VALID,0,VALID,18.2057,VALID,126,VALID,0,
2012-09-21, 02:54:04,VALID,918.023,VALID,0,VALID,97.5492,VALID,0,VALID,18.2252,VALID,126,VALID,0,
2012-09-21, 02:55:04,VALID,918.027,VALID,0,VALID,97.5645,VALID,0,VALID,18.2447,VALID,126,VALID,0,
2012-09-21, 02:56:04,VALID,918.041,VALID,0,VALID,97.5721,VALID,0,VALID,18.2642,VALID,119,VALID,0,
2012-09-21, 02:57:04,VALID,918.03,VALID,0,VALID,97.5797,VALID,0,VALID,18.3032,VALID,116,VALID,0,
2012-09-21, 02:58:04,VALID,918.031,VALID,0,VALID,97.5797,VALID,0,VALID,18.3018,VALID,118,VALID,0,
2012-09-21, 02:59:04,VALID,918.046,VALID,0,VALID,97.595,VALID,0,VALID,18.3617,VALID,132,VALID,0,
2012-09-21, 03:00:04,VALID,918.018,VALID,0,VALID,97.6026,VALID,0,VALID,18.3603,VALID,129,VALID,0,
2012-09-21, 03:01:04,VALID,918.012,VALID,0,VALID,97.5873,VALID,0,VALID,18.4007,VALID,131,VALID,0,
2012-09-21, 03:02:04,VALID,918.007,VALID,0,VALID,97.6026,VALID,0,VALID,18.4007,VALID,125,VALID,0,
2012-09-21, 03:03:04,VALID,917.962,VALID,0,VALID,97.595,VALID,0,VALID,18.4202,VALID,123,VALID,0,
2012-09-21, 03:04:04,VALID,917.959,VALID,0,VALID,97.5797,VALID,0,VALID,18.4007,VALID,142,VALID,0,
2012-09-21, 03:05:04,VALID,917.933,VALID,0,VALID,97.6026,VALID,0,VALID,18.4397,VALID,141,VALID,0,
2012-09-21, 03:06:04,VALID,917.918,VALID,0,VALID,97.5873,VALID,0,VALID,18.4397,VALID,141,VALID,0,
2012-09-21, 03:07:04,VALID,917.928,VALID,0,VALID,97.595,VALID,0,VALID,18.4202,VALID,141,VALID,0,
2012-09-21, 03:08:04,VALID,917.909,VALID,0,VALID,97.5797,VALID,0,VALID,18.4202,VALID,141,VALID,0,
2012-09-21, 03:09:04,VALID,917.903,VALID,0,VALID,97.5873,VALID,0,VALID,18.4202,VALID,141,VALID,0,
2012-09-21, 03:10:04,VALID,917.898,VALID,0,VALID,97.5873,VALID,0,VALID,18.4202,VALID,141,VALID,0,
2012-09-21, 03:11:04,VALID,917.904,VALID,0,VALID,97.5873,VALID,0,VALID,18.4202,VALID,144,VALID,0,
2012-09-21, 03:12:04,VALID,917.881,VALID,0,VALID,97.6026,VALID,0,VALID,18.4397,VALID,149,VALID,0,
2012-09-21, 03:13:04,VALID,917.835,VALID,0,VALID,97.5873,VALID,0,VALID,18.4592,VALID,124,VALID,0,
2012-09-21, 03:14:04,VALID,917.803,VALID,0,VALID,97.5873,VALID,0,VALID,18.4592,VALID,146,VALID,0,
2012-09-21, 03:15:04,VALID,917.812,VALID,0,VALID,97.5797,VALID,0,VALID,18.4787,VALID,146,VALID,0,
2012-09-21, 03:16:04,VALID,917.836,VALID,0,VALID,97.595,VALID,0,VALID,18.4787,VALID,146,VALID,0,
2012-09-21, 03:17:04,VALID,917.79,VALID,0,VALID,97.6026,VALID,0,VALID,18.4982,VALID,146,VALID,0,
2012-09-21, 03:18:04,VALID,917.779,VALID,0,VALID,97.5873,VALID,0,VALID,18.5177,VALID,144,VALID,0,
2012-09-21, 03:19:04,VALID,917.758,VALID,0,VALID,97.595,VALID,0,VALID,18.5177,VALID,144,VALID,0,
2012-09-21, 03:20:04,VALID,917.742,VALID,0,VALID,97.5797,VALID,0,VALID,18.5372,VALID,144,VALID,0,
2012-09-21, 03:21:04,VALID,917.749,VALID,0,VALID,97.6102,VALID,0,VALID,18.5177,VALID,144,VALID,0,
2012-09-21, 03:22:04,VALID,917.71,VALID,0,VALID,97.595,VALID,0,VALID,18.4982,VALID,144,VALID,0,
2012-09-21, 03:23:04,VALID,917.715,VALID,0,VALID,97.595,VALID,0,VALID,18.4773,VALID,144,VALID,0,
2012-09-21, 03:24:04,VALID,917.71,VALID,0,VALID,97.595,VALID,0,VALID,18.4773,VALID,144,VALID,0,
2012-09-21, 03:25:04,VALID,917.704,VALID,0,VALID,97.595,VALID,0,VALID,18.5177,VALID,144,VALID,0,
2012-09-21, 03:26:04,VALID,917.705,VALID,0,VALID,97.6026,VALID,0,VALID,18.5177,VALID,143,VALID,0,
2012-09-21, 03:27:04,VALID,917.724,VALID,0,VALID,97.6102,VALID,0,VALID,18.4982,VALID,129,VALID,0,
2012-09-21, 03:28:04,VALID,917.737,VALID,0,VALID,97.6026,VALID,0,VALID,18.4968,VALID,126,VALID,0,
2012-09-21, 03:29:04,VALID,917.737,VALID,0,VALID,97.5873,VALID,0,VALID,18.4982,VALID,126,VALID,0,
2012-09-21, 03:30:04,VALID,917.763,VALID,0,VALID,97.6102,VALID,0,VALID,18.5177,VALID,126,VALID,0,
2012-09-21, 03:31:04,VALID,917.721,VALID,0,VALID,97.6026,VALID,0,VALID,18.5177,VALID,126,VALID,0,
2012-09-21, 03:32:04,VALID,917.705,VALID,0,VALID,97.595,VALID,0,VALID,18.4968,VALID,126,VALID,0,
2012-09-21, 03:33:04,VALID,917.713,VALID,0,VALID,97.5797,VALID,0,VALID,18.5567,VALID,126,VALID,0,
2012-09-21, 03:34:04,VALID,917.691,VALID,0,VALID,97.595,VALID,0,VALID,18.5358,VALID,126,VALID,0,
2012-09-21, 03:35:04,VALID,917.724,VALID,0,VALID,97.5797,VALID,0,VALID,18.5567,VALID,126,VALID,0,
2012-09-21, 03:36:04,VALID,917.707,VALID,0,VALID,97.5797,VALID,0,VALID,18.5372,VALID,126,VALID,0,
2012-09-21, 03:37:04,VALID,917.707,VALID,0,VALID,97.5645,VALID,0,VALID,18.4968,VALID,113,VALID,0,
2012-09-21, 03:38:04,VALID,917.694,VALID,0,VALID,97.5569,VALID,0,VALID,18.4982,VALID,113,VALID,0,
2012-09-21, 03:39:04,VALID,917.687,VALID,0,VALID,97.5416,VALID,0,VALID,18.4982,VALID,115,VALID,0,
2012-09-21, 03:40:04,VALID,917.678,VALID,0,VALID,97.5492,VALID,0,VALID,18.4982,VALID,121,VALID,0,
2012-09-21, 03:41:04,VALID,917.683,VALID,0,VALID,97.534,VALID,0,VALID,18.4578,VALID,123,VALID,0,
2012-09-21, 03:42:04,VALID,917.672,VALID,0,VALID,97.5416,VALID,0,VALID,18.4578,VALID,131,VALID,0,
2012-09-21, 03:43:04,VALID,917.68,VALID,0,VALID,97.5264,VALID,0,VALID,18.4787,VALID,121,VALID,0,
2012-09-21, 03:44:04,VALID,917.648,VALID,0,VALID,97.534,VALID,0,VALID,18.4578,VALID,121,VALID,0,
2012-09-21, 03:45:04,VALID,917.675,VALID,0,VALID,97.5264,VALID,0,VALID,18.4397,VALID,121,VALID,0,
2012-09-21, 03:46:04,VALID,917.635,VALID,0,VALID,97.5187,VALID,0,VALID,18.4592,VALID,121,VALID,0,
2012-09-21, 03:47:04,VALID,917.675,VALID,0,VALID,97.4959,VALID,0,VALID,18.4578,VALID,121,VALID,0,
2012-09-21, 03:48:04,VALID,917.696,VALID,0,VALID,97.4959,VALID,0,VALID,18.4188,VALID,121,VALID,0,
2012-09-21, 03:49:04,VALID,917.69,VALID,0,VALID,97.4882,VALID,0,VALID,18.4592,VALID,121,VALID,0,
2012-09-21, 03:50:04,VALID,917.696,VALID,0,VALID,97.4806,VALID,0,VALID,18.4383,VALID,121,VALID,0,
2012-09-21, 03:51:04,VALID,917.704,VALID,0,VALID,97.4882,VALID,0,VALID,18.4787,VALID,122,VALID,0,
2012-09-21, 03:52:04,VALID,917.718,VALID,0,VALID,97.4882,VALID,0,VALID,18.4578,VALID,138,VALID,0,
2012-09-21, 03:53:04,VALID,917.751,VALID,0,VALID,97.473,VALID,0,VALID,18.4787,VALID,140,VALID,0,
2012-09-21, 03:54:04,VALID,917.717,VALID,0,VALID,97.4882,VALID,0,VALID,18.5163,VALID,141,VALID,0,
2012-09-21, 03:55:04,VALID,917.727,VALID,0,VALID,97.473,VALID,0,VALID,18.5372,VALID,141,VALID,0,
2012-09-21, 03:56:04,VALID,917.741,VALID,0,VALID,97.4654,VALID,0,VALID,18.4968,VALID,143,VALID,0,
2012-09-21, 03:57:04,VALID,917.746,VALID,0,VALID,97.4654,VALID,0,VALID,18.4968,VALID,144,VALID,0,
2012-09-21, 03:58:04,VALID,917.74,VALID,0,VALID,97.4501,VALID,0,VALID,18.4968,VALID,138,VALID,0,
2012-09-21, 03:59:04,VALID,917.716,VALID,0,VALID,97.4501,VALID,0,VALID,18.4578,VALID,127,VALID,0,